Погода в Канашеве

Россия / Челябинская область     55°12′36″N   62°04′02″E
темп.,
°C
ветер,
м/с
пор.,
м/с
влажн.,
%
обл.,
%
осадки,
мм/ч
давл.,
гПа
погр.,
м
8 августа, пн
пн823:00+19всв2281100 0.1 101824
02:00+18св339022 1.0 101836
05:00+17с229146 1.0 101816
08:00+20ссв238086 0.0 1019209
11:00+25св345697 0.0 10181248
14:00+27св5544100 0.0 10182204
17:00+26всв4545100 0.0 10171703
20:00+22св2262100 0.0 101817
9 августа, вт
вт923:00+19в2374100 0.0 101929
02:00+17в127726 0.0 101911
05:00+16ссз22795 0.0 101918
08:00+21с34665 0.0 1019228
11:00+25ссв35514 0.0 10191358
14:00+28св454249 0.0 10182481
17:00+26ссв3549100 0.0 1017253
20:00+23ссв226250 0.0 101713
10 августа, ср
ср1023:00+20с22662 0.0 101814
02:00+17ссз23744 0.0 101826
05:00+17ссз36855 0.0 101896
08:00+21ссз45725 0.0 1018268
11:00+25с45553 0.0 1018972
14:00+28ссв34455 0.0 10171629
17:00+28ссв444483 0.0 10162018
20:00+24ссв2362100 0.0 101725
11 августа, чт
чт1123:00+20ссз227299 0.0 101714
02:00+18зюз1185100 0.7 101711
05:00+18з1187100 1.4 101711
08:00+21ю22755 0.0 1017201
11:00+26ю34552 0.0 1016863
14:00+29ююз454345 0.0 10152275
17:00+28юз4644100 0.0 10131992
20:00+18ю2295100 9.1 101580
12 августа, пт
пт1223:00+17зсз238786 9.1 101348
02:00+16зсз239363 0.0 101449
05:00+14зсз410945 0.0 1014298
08:00+16зсз6108018 0.0 1014694
11:00+17зсз7971100 0.1 10141038
14:00+20сз7105143 0.2 10131879
17:00+20зсз695182 0.2 10131244
20:00+17зсз71158100 0.0 1013834